Weather History for Beaufort MCAS, SC

Change the Weather History Date:

Wednesday, October 16, 2013

  Actual Average Record
Temperature  
Mean Temperature 70 °F -  
Max Temperature 81 °F 78 °F 87 °F (1931)
Min Temperature 60 °F 59 °F 41 °F (1978)
Cooling Degree Days 5    
Growing Degree Days 20 (Base 50)    
Moisture  
Dew Point 62 °F    
Average Humidity 78    
Maximum Humidity 93    
Minimum Humidity 52    
Precipitation  
Precipitation 0.00 in - - ()
Sea Level Pressure  
Sea Level Pressure 30.01 in    
Wind  
Wind Speed 3 mph (NE)    
Max Wind Speed 6 mph    
Max Gust Speed -    
Visibility 10 miles    
Events      
Averages and records for this station are not official NWS values.
T = Trace of Precipitation, MM = Missing Value Source: NWS Daily Summary

Daily Weather History Graph

Daily Weather History Graph

Search for Another Location

Airport:

Trip Planner

Search our weather history database for the weather conditions in past years. The results will help you decide how hot, cold, wet, or windy it might be!

Date:

Astronomy

Oct. 16, 2013 Rise Set
Actual Time 7:27 AM EDT 6:48 PM EDT
Civil Twilight 7:02 AM EDT 7:13 PM EDT
Nautical Twilight 6:34 AM EDT 7:41 PM EDT
Astronomical Twilight 6:05 AM EDT 8:10 PM EDT
Moon 5:21 PM EDT (10/16) 5:01 AM EDT (10/16)
Length of Visible Light 12h 10m
Length of Day
11h 20m
Waxing Gibbous, 94% of the Moon is Illuminated
Oct 16
Waxing Gibbous
Oct 18
Full
Oct 26
Last Quarter
Nov 3
New
Nov 10
First Quarter

Hourly Weather History & Observations

Time (EDT) Temp. Heat Index Dew Point Humidity Pressure Visibility Wind Dir Wind Speed Gust Speed Precip Events Conditions
12:56 AM 63.0 °F - 61.0 °F 93% 30.03 in 10.0 mi North 5.8 mph - N/A   Clear
1:56 AM 62.1 °F - 60.1 °F 93% 30.03 in 10.0 mi NNW 3.5 mph - N/A   Clear
2:56 AM 62.1 °F - 59.0 °F 90% 30.01 in 10.0 mi North 3.5 mph - N/A   Clear
3:56 AM 62.1 °F - 59.0 °F 90% 30.01 in 10.0 mi NNW 3.5 mph - N/A   Scattered Clouds
4:56 AM 61.0 °F - 59.0 °F 93% 30.00 in 10.0 mi Calm Calm - N/A   Clear
5:56 AM 62.1 °F - 59.0 °F 90% 30.00 in 10.0 mi North 3.5 mph - N/A   Clear
6:56 AM 60.1 °F - 57.9 °F 93% 30.01 in 7.0 mi Calm Calm - N/A   Scattered Clouds
7:56 AM 62.1 °F - 59.0 °F 90% 30.03 in 8.0 mi North 4.6 mph - N/A   Scattered Clouds
8:56 AM 66.0 °F - 63.0 °F 90% 30.03 in 10.0 mi NE 5.8 mph - N/A   Scattered Clouds
9:56 AM 71.1 °F - 63.0 °F 75% 30.04 in 10.0 mi NE 3.5 mph - N/A   Scattered Clouds
10:56 AM 75.0 °F - 62.1 °F 64% 30.04 in 10.0 mi Variable 4.6 mph - N/A   Scattered Clouds
11:56 AM 75.0 °F - 61.0 °F 62% 30.04 in 10.0 mi NNE 4.6 mph - N/A   Mostly Cloudy
12:56 PM 78.1 °F - 61.0 °F 56% 30.02 in 10.0 mi Variable 3.5 mph - N/A   Mostly Cloudy
1:56 PM 78.1 °F - 60.1 °F 54% 30.00 in 10.0 mi Calm Calm - N/A   Mostly Cloudy
2:56 PM 77.0 °F - 60.1 °F 56% 29.97 in 10.0 mi Calm Calm - N/A   Mostly Cloudy
3:56 PM 78.1 °F - 60.1 °F 54% 29.97 in 10.0 mi Calm Calm - N/A   Mostly Cloudy
4:56 PM 80.1 °F 81.1 °F 61.0 °F 52% 29.96 in 10.0 mi Calm Calm - N/A   Scattered Clouds
5:56 PM 75.9 °F - 64.9 °F 69% 29.97 in 10.0 mi South 5.8 mph - N/A   Scattered Clouds
6:56 PM 73.0 °F - 66.0 °F 79% 29.98 in 10.0 mi SSE 5.8 mph - N/A   Scattered Clouds
7:56 PM 71.1 °F - 66.0 °F 84% 29.99 in 10.0 mi SE 4.6 mph - N/A   Scattered Clouds
8:56 PM 70.0 °F - 66.0 °F 87% 30.01 in 10.0 mi SE 4.6 mph - N/A   Scattered Clouds
9:56 PM 70.0 °F - 64.9 °F 84% 30.02 in 10.0 mi Calm Calm - N/A   Scattered Clouds
10:56 PM 70.0 °F - 66.0 °F 87% 30.01 in 10.0 mi SSE 3.5 mph - N/A   Scattered Clouds
11:56 PM 69.1 °F - 66.0 °F 90% 30.00 in 10.0 mi Calm Calm - N/A   Clear